THOR AGENA B DEB, 1948

Orbit data source: Space-Track

THOR AGENA B DEB, 1948 is space debris in LEO originally from a launch on Mon, 29 Nov 1965 UTC launched from the Air Force Western Test Range (AFWTR). Debris objects in space refer to the collection of defunct objects orbiting the Earth. Examples of debris include non-operational satellites, rocket bodies, and fragments generated from explosions, collisions, or faulty payload assembly.

Loading next visibility...
Identifier
1948, 1965-098F
Orbit
LEO
Last TLE update
11 hours ago
Origin
Manufacturer
Unknown
Mission
Spacecraft
Bus & Motor
Unknown
Mass
~1 kg wet, ~1 kg dry
Launch date (UTC)
1965-11-29 (60 years ago)
Launch vehicle
Unknown
Launch site
Air Force Western Test Range (AFWTR)
Object type
Payload
Rocket body
Debris
Shape & HBR
Half Cyl + Cone, 1.5 m
Radar Cross Section
0.531 m², Medium (>0.1 m² and < 1m²)

Expand to show TLE details & history

TLE from 11 hours ago
0 THOR AGENA B DEB
1 01948U 65098F   25167.34781609  .00005480  00000-0  10130-2 0  9993
2 01948  79.8466 299.1694 0767859  92.0258 276.8915 13.57019561759470
Epoch: 2025-06-16T08:20Z
TLE epoch observation values (Epoch: 2025-06-16T08:20:51.31Z)
Latitude
0.00002°
Longitude
-90.90424°
Altitude
1,024.512 km
Speed
7.352 km/s
True Right ascension
19h 56m 40s
True Declination
0° 00' 00"
Sunlit
Object was in full shadow at epoch
Visualization orbit readout
Latitude
45.17009°
Longitude
78.28785°
Altitude
617.842 km
Speed
7.773 km/s
Apparent Right ascension
12h 36m 20s
Apparent Declination
34° 13' 43"
Sunlit
Object is in daylight
Visualization observer readout
Local Sidereal Time
06:13:51
Azimuth
59.569° ENE
Elevation
17.389°
Doppler factor
1
Orbital elements
Apogee altitude
1,613.738 km
Perigee altitude
473.933 km
Semi-major axis
7,421.972 km
Eccentricity
0.07679
Inclination
79.8466°
RAAN
299.1694°
Arg. of periapsis
92.0258°
True anomaly
Unknown
Mean anomaly
276.8915°
Eccentric anomaly
Unknown
Mean motion
3.39441 °/min
Orbital period
106.06 mins
BSTAR
0.001013
Loading maneuver chart data...
Loading SW <> Apogee altitude chart data...
Loading historical data...
Loading historical data...
Loading historical data...
Loading historical data...
Loading historical data...
Loading historical data...
Loading historical data...

THOR AGENA B DEB Visibility forecast

Observer location: undefined°, undefined°

Span
Click to sort rows by Start time (UTC) header in descending order
Start Az.
Max El. time (UTC)
Max El. Az.
Max El.
End time (UTC)
End Az.
6 mins2025-06-16 21:19:03.531Z307.216° NW2025-06-16 21:21:03.531Z261.548° W27.405°2025-06-16 21:25:03.531Z203.525° SW
7 mins2025-06-17 09:15:03.531Z164.257° S2025-06-17 09:18:03.531Z105.975° ESE36.087°2025-06-17 09:22:03.531Z25.051° NE
|